Home > Weather > Oldham > Past weeks

Flag for United Kingdom Past Weather in Oldham, England, United Kingdom — Yesterday and Last 2 Weeks

Now
59 °F

Scattered clouds.


Feels Like: 57 °F
Forecast: 47 / 55 °F
Wind: 12 mph from West

Location: Manchester Airport

Current Time: Jul 1, 2016 at 10:54:59 AM

Latest Report: Jul 1, 2016 at 9:50 AM


Visibility: N/A

Pressure: 29.71 "Hg

Humidity: 68%

Dew Point: 48 °F

Location of OldhamLocation

Past Weather in Oldham — Graph

°F

Oldham Temperature Yesterday

Maximum temperature yesterday: 64 °F (at 12:50 PM)
Minimum temperature yesterday: 48 °F (at 5:20 AM)
Average temperature yesterday: 56 °F

High & Low Weather Summary for the Past Weeks

 TemperatureHumidityPressure
High72 °F (Jun 23, 3:50 PM)100% (Jun 20, 10:20 AM)30.21 "Hg (Jun 20, 10:20 AM)
Low48 °F (Jun 29, 3:50 AM)47% (Jun 23, 3:50 PM)29.53 "Hg (Jun 29, 12:20 PM)
Average58 °F80%29.92 "Hg
* Reported Jun 16 9:20 AM — Jul 1 9:20 AM, Oldham, Weather by CustomWeather, © 2016

Note: Actual official high and low records may vary slightly from our data, if they occured in-between our weather recording intervals... More about our weather records

Advertising

Oldham Weather History for the Previous 24 Hours

Scroll right to see more
 ConditionsComfort  
Time TempWeatherWind HumidityBarometerVisibility
9:20 AM
Fri, Jul 1
57 °FPassing clouds.14 mph77%29.71 "HgN/A
8:50 AM57 °FPassing clouds.10 mph82%29.71 "HgN/A
8:20 AM55 °FSunny.9 mph88%29.68 "Hg10 mi
7:50 AM54 °FPassing clouds.8 mph88%29.68 "HgN/A
7:20 AM52 °FLight rain. Broken clouds.9 mph94%29.68 "Hg5 mi
6:50 AM54 °FScattered showers. Partly sunny.8 mph88%29.68 "HgN/A
6:20 AM54 °FBroken clouds.8 mph94%29.68 "HgN/A
5:50 AM54 °FScattered clouds.7 mph94%29.68 "HgN/A
5:20 AM54 °FPassing clouds.8 mph94%29.68 "HgN/A
4:50 AM54 °FClear.7 mph94%29.68 "Hg10 mi
4:20 AM54 °FPassing clouds.8 mph94%29.68 "HgN/A
3:50 AM54 °FLight rain. Passing clouds.8 mph94%29.68 "HgN/A
3:20 AM55 °FLight rain. Passing clouds.9 mph88%29.68 "Hg3 mi
2:50 AM55 °FPartly cloudy.10 mph94%29.65 "HgN/A
2:20 AM55 °FPartly cloudy.12 mph94%29.65 "HgN/A
1:50 AM55 °FPassing clouds.10 mph94%29.65 "HgN/A
1:20 AM55 °FPassing clouds.9 mph94%29.65 "HgN/A
12:50 AM55 °FPassing clouds.9 mph94%29.65 "HgN/A
12:20 AM55 °FPassing clouds.10 mph94%29.65 "HgN/A
11:50 PM
Thu, Jun 30
55 °FPartly cloudy.12 mph94%29.65 "HgN/A
11:20 PM55 °FRain. Partly cloudy.13 mph94%29.62 "Hg5 mi
10:50 PM55 °FPartly cloudy.10 mph94%29.62 "Hg4 mi
10:20 PM55 °FLight rain. Broken clouds.14 mph94%29.65 "Hg4 mi
9:50 PM55 °FLight rain. Scattered clouds.13 mph94%29.65 "Hg4 mi
9:20 PM55 °FRain. Scattered clouds.12 mph88%29.65 "Hg3 mi
8:50 PM55 °FLight rain. Scattered clouds.9 mph88%29.65 "Hg2 mi
8:20 PM55 °FRain. Scattered clouds.9 mph88%29.68 "Hg4 mi
7:50 PM57 °FRain. Scattered clouds.7 mph82%29.68 "HgN/A
7:20 PM57 °FLight rain. Scattered clouds.6 mph82%29.71 "HgN/A
6:50 PM57 °FLight rain. Scattered clouds.9 mph82%29.71 "HgN/A
6:20 PM59 °FLight rain. Scattered clouds.6 mph72%29.71 "HgN/A
5:50 PM59 °FLight rain. Passing clouds.9 mph72%29.71 "HgN/A
5:20 PM59 °FLight rain. Passing clouds.12 mph68%29.71 "HgN/A
4:50 PM61 °FPassing clouds.13 mph55%29.74 "HgN/A
4:20 PM61 °FPassing clouds.12 mph59%29.74 "HgN/A
3:50 PM61 °FPassing clouds.7 mph59%29.74 "HgN/A
3:20 PM61 °FPassing clouds.10 mph59%29.74 "HgN/A
2:50 PM63 °FScattered clouds.15 mph59%29.74 "HgN/A
2:20 PM63 °FBroken clouds.12 mph56%29.74 "HgN/A
1:50 PM63 °FPassing clouds.10 mph59%29.74 "HgN/A
1:20 PM63 °FPassing clouds.12 mph59%29.74 "HgN/A
12:50 PM64 °FPassing clouds.13 mph52%29.74 "HgN/A
12:20 PM63 °FPassing clouds.13 mph56%29.74 "HgN/A
11:50 AM61 °FPassing clouds.10 mph63%29.74 "HgN/A
11:20 AM61 °FScattered clouds.9 mph63%29.74 "HgN/A
10:50 AM59 °FBroken clouds.8 mph68%29.74 "HgN/A
10:20 AM61 °FPartly sunny.8 mph63%29.74 "HgN/A
Weather by CustomWeather, © 2016

See weather overviewHow to use our weather pages